N22ZB KFSM-KLIT

Flight info

Callsign N22ZB
Flight time 0h 57m
Altitude 7000
Route MULBY OLLAS PAZYA
Aircraft S22T/L-VGD/C

Departure

Time 2026-05-06 00:46
Airport Fort Smith Regional Airport (KFSM)

Arrival

Time 2026-05-06 01:44
Airport Bill & Hillary Clinton National Airport/Adams Field (KLIT)
Time Latitude Longitude Altitude Speed Heading
2026-05-06 00:28 35.33645 -94.37511 453 ft 0 kts 351°
2026-05-06 00:40 35.33651 -94.37509 453 ft 3 kts 41°
2026-05-06 00:41 35.33649 -94.37494 453 ft 0 kts 159°
2026-05-06 00:43 35.33648 -94.37493 453 ft 0 kts 161°
2026-05-06 00:43 35.33639 -94.37492 453 ft 4 kts 183°
2026-05-06 00:43 35.33595 -94.37524 454 ft 11 kts 221°
2026-05-06 00:43 35.33566 -94.37632 456 ft 15 kts 255°
2026-05-06 00:44 35.33524 -94.37761 458 ft 17 kts 252°
2026-05-06 00:44 35.33505 -94.37889 460 ft 13 kts 261°
2026-05-06 00:44 35.33493 -94.37988 461 ft 12 kts 261°
2026-05-06 00:44 35.33478 -94.38092 462 ft 9 kts 251°
2026-05-06 00:45 35.33465 -94.38126 462 ft 0 kts 228°
2026-05-06 00:45 35.33459 -94.38133 463 ft 8 kts 219°
2026-05-06 00:45 35.33383 -94.38137 464 ft 12 kts 168°
2026-05-06 00:45 35.33371 -94.38062 463 ft 22 kts 80°
2026-05-06 00:46 35.33440 -94.37611 460 ft 85 kts 78°
2026-05-06 00:46 35.33519 -94.36777 637 ft 109 kts 77°
2026-05-06 00:46 35.33568 -94.35853 1036 ft 109 kts 83°
2026-05-06 00:46 35.33641 -94.34924 1418 ft 111 kts 80°
2026-05-06 00:47 35.33746 -94.33958 1713 ft 118 kts 82°
2026-05-06 00:47 35.33866 -94.32957 2041 ft 119 kts 80°
2026-05-06 00:47 35.34002 -94.31914 2270 ft 133 kts 82°
2026-05-06 00:47 35.34156 -94.30772 2564 ft 134 kts 81°
2026-05-06 00:48 35.34457 -94.29692 2867 ft 139 kts 49°
2026-05-06 00:48 35.35236 -94.28981 3154 ft 143 kts 35°
2026-05-06 00:48 35.36026 -94.28213 3443 ft 147 kts 38°
2026-05-06 00:48 35.36813 -94.27414 3731 ft 150 kts 40°
2026-05-06 00:49 35.37618 -94.26589 4040 ft 152 kts 39°
2026-05-06 00:49 35.38435 -94.25742 4340 ft 155 kts 39°
2026-05-06 00:49 35.39269 -94.24886 4632 ft 159 kts 39°
2026-05-06 00:49 35.40118 -94.24010 4956 ft 160 kts 39°
2026-05-06 00:50 35.40970 -94.23128 5271 ft 162 kts 38°
2026-05-06 00:50 35.41832 -94.22234 5581 ft 162 kts 37°
2026-05-06 00:50 35.42702 -94.21336 5878 ft 165 kts 36°
2026-05-06 00:50 35.43577 -94.20435 6238 ft 163 kts 38°
2026-05-06 00:51 35.44151 -94.19843 6441 ft 163 kts 37°
2026-05-06 00:51 35.45021 -94.18945 6741 ft 164 kts 35°
2026-05-06 00:51 35.45600 -94.18344 6935 ft 165 kts 35°
2026-05-06 00:51 35.46980 -94.16461 6999 ft 197 kts 73°
2026-05-06 00:52 35.46949 -94.14837 7003 ft 189 kts 121°
2026-05-06 00:52 35.46179 -94.13648 7001 ft 175 kts 148°
2026-05-06 00:52 35.45404 -94.12440 7001 ft 185 kts 131°
2026-05-06 00:52 35.44996 -94.11509 6997 ft 188 kts 126°
2026-05-06 00:53 35.44407 -94.10076 6997 ft 188 kts 127°
2026-05-06 00:53 35.43790 -94.08667 6997 ft 188 kts 128°
2026-05-06 00:53 35.43165 -94.07261 6984 ft 188 kts 127°
2026-05-06 00:53 35.42537 -94.05853 6985 ft 189 kts 127°
2026-05-06 00:54 35.41907 -94.04436 6981 ft 189 kts 127°
2026-05-06 00:54 35.41280 -94.03018 6983 ft 189 kts 127°
2026-05-06 00:54 35.40650 -94.01598 6982 ft 190 kts 127°
2026-05-06 00:54 35.40020 -94.00177 6981 ft 190 kts 127°
2026-05-06 00:55 35.39390 -93.98759 6982 ft 190 kts 127°
2026-05-06 00:55 35.38765 -93.97354 6981 ft 190 kts 127°
2026-05-06 00:55 35.38124 -93.95911 6980 ft 190 kts 127°
2026-05-06 00:55 35.37499 -93.94507 6979 ft 190 kts 127°
2026-05-06 00:56 35.36867 -93.93083 6980 ft 190 kts 127°
2026-05-06 00:56 35.36236 -93.91667 6980 ft 190 kts 127°
2026-05-06 00:56 35.35605 -93.90247 6979 ft 190 kts 127°
2026-05-06 00:56 35.34975 -93.88828 6979 ft 190 kts 127°
2026-05-06 00:57 35.34345 -93.87410 6978 ft 189 kts 127°
2026-05-06 00:57 35.33712 -93.85990 6978 ft 189 kts 127°
2026-05-06 00:57 35.33081 -93.84575 6978 ft 189 kts 127°
2026-05-06 00:57 35.32459 -93.83179 6977 ft 189 kts 127°
2026-05-06 00:58 35.31826 -93.81763 6982 ft 190 kts 127°
2026-05-06 00:58 35.31193 -93.80338 6981 ft 190 kts 127°
2026-05-06 00:58 35.30558 -93.78918 6975 ft 190 kts 128°
2026-05-06 00:58 35.29924 -93.77503 6977 ft 190 kts 128°
2026-05-06 00:59 35.29289 -93.76081 6976 ft 190 kts 128°
2026-05-06 00:59 35.28655 -93.74658 6967 ft 190 kts 128°
2026-05-06 00:59 35.28023 -93.73243 6969 ft 189 kts 128°
2026-05-06 00:59 35.27390 -93.71830 6971 ft 190 kts 128°
2026-05-06 01:00 35.26754 -93.70412 6972 ft 190 kts 128°
2026-05-06 01:00 35.26133 -93.69014 6972 ft 190 kts 128°
2026-05-06 01:00 35.25501 -93.67597 6971 ft 190 kts 128°
2026-05-06 01:00 35.24866 -93.66183 6969 ft 189 kts 129°
2026-05-06 01:01 35.24234 -93.64771 6974 ft 189 kts 128°
2026-05-06 01:01 35.23598 -93.63359 6975 ft 190 kts 128°
2026-05-06 01:01 35.22960 -93.61942 6976 ft 191 kts 128°
2026-05-06 01:01 35.22322 -93.60520 6977 ft 191 kts 128°
2026-05-06 01:02 35.21685 -93.59099 6974 ft 190 kts 128°
2026-05-06 01:02 35.21050 -93.57681 6974 ft 190 kts 128°
2026-05-06 01:02 35.20415 -93.56270 6974 ft 190 kts 128°
2026-05-06 01:02 35.19778 -93.54858 6974 ft 189 kts 128°
2026-05-06 01:03 35.19155 -93.53466 6966 ft 189 kts 129°
2026-05-06 01:03 35.18527 -93.52061 6967 ft 188 kts 129°
2026-05-06 01:03 35.17897 -93.50664 6971 ft 187 kts 129°
2026-05-06 01:03 35.17273 -93.49279 6986 ft 187 kts 129°
2026-05-06 01:04 35.16640 -93.47885 6986 ft 187 kts 129°
2026-05-06 01:04 35.16013 -93.46493 6988 ft 187 kts 129°
2026-05-06 01:04 35.15387 -93.45098 6983 ft 187 kts 129°
2026-05-06 01:04 35.14755 -93.43704 6982 ft 188 kts 129°
2026-05-06 01:05 35.14126 -93.42302 6983 ft 189 kts 129°
2026-05-06 01:05 35.13488 -93.40896 6983 ft 189 kts 129°
2026-05-06 01:05 35.12856 -93.39511 6983 ft 189 kts 129°
2026-05-06 01:05 35.12222 -93.38100 6986 ft 190 kts 129°
2026-05-06 01:06 35.11584 -93.36685 6985 ft 190 kts 129°
2026-05-06 01:06 35.10946 -93.35271 6995 ft 190 kts 129°
2026-05-06 01:06 35.10308 -93.33861 6996 ft 190 kts 129°
2026-05-06 01:06 35.09669 -93.32447 6992 ft 190 kts 129°
2026-05-06 01:07 35.09029 -93.31032 6990 ft 190 kts 129°
2026-05-06 01:07 35.08388 -93.29620 6990 ft 190 kts 129°
2026-05-06 01:07 35.07749 -93.28204 6990 ft 190 kts 129°
2026-05-06 01:07 35.07109 -93.26791 6990 ft 190 kts 129°
2026-05-06 01:08 35.06470 -93.25382 6992 ft 190 kts 129°
2026-05-06 01:08 35.05831 -93.23973 6992 ft 190 kts 129°
2026-05-06 01:08 35.05200 -93.22583 6992 ft 190 kts 129°
2026-05-06 01:08 35.04560 -93.21172 6992 ft 190 kts 129°
2026-05-06 01:09 35.03919 -93.19764 6998 ft 190 kts 129°
2026-05-06 01:09 35.03280 -93.18355 6998 ft 190 kts 129°
2026-05-06 01:09 35.02640 -93.16946 6998 ft 190 kts 129°
2026-05-06 01:09 35.02000 -93.15537 6997 ft 190 kts 129°
2026-05-06 01:10 35.01360 -93.14131 6999 ft 190 kts 129°
2026-05-06 01:10 35.00719 -93.12724 7000 ft 190 kts 129°
2026-05-06 01:10 35.00138 -93.11261 6998 ft 197 kts 116°
2026-05-06 01:10 34.99952 -93.09599 6998 ft 203 kts 99°
2026-05-06 01:11 34.99855 -93.07891 6997 ft 201 kts 101°
2026-05-06 01:11 34.99743 -93.06194 6997 ft 200 kts 100°
2026-05-06 01:11 34.99633 -93.04499 7003 ft 201 kts 101°
2026-05-06 01:11 34.99526 -93.02797 7006 ft 202 kts 101°
2026-05-06 01:12 34.99419 -93.01087 7002 ft 202 kts 101°
2026-05-06 01:12 34.99309 -92.99372 7004 ft 203 kts 101°
2026-05-06 01:12 34.99200 -92.97660 7002 ft 202 kts 101°
2026-05-06 01:12 34.99089 -92.95950 7003 ft 203 kts 101°
2026-05-06 01:13 34.98982 -92.94233 7004 ft 204 kts 101°
2026-05-06 01:13 34.98873 -92.92512 7001 ft 203 kts 101°
2026-05-06 01:13 34.98759 -92.90797 7004 ft 203 kts 101°
2026-05-06 01:13 34.98652 -92.89097 7013 ft 205 kts 101°
2026-05-06 01:14 34.98430 -92.85635 7011 ft 205 kts 100°
2026-05-06 01:14 34.98323 -92.83905 7011 ft 204 kts 101°
2026-05-06 01:14 34.98204 -92.82177 7011 ft 205 kts 101°
2026-05-06 01:15 34.98089 -92.80447 7024 ft 205 kts 101°
2026-05-06 01:15 34.97977 -92.78719 7024 ft 204 kts 101°
2026-05-06 01:15 34.97865 -92.76995 7025 ft 204 kts 101°
2026-05-06 01:15 34.97752 -92.75269 7027 ft 204 kts 101°
2026-05-06 01:16 34.97638 -92.73541 7029 ft 205 kts 101°
2026-05-06 01:16 34.97526 -92.71835 7030 ft 204 kts 101°
2026-05-06 01:16 34.97412 -92.70106 7032 ft 205 kts 101°
2026-05-06 01:16 34.97299 -92.68377 7026 ft 205 kts 101°
2026-05-06 01:17 34.97182 -92.66636 7003 ft 206 kts 101°
2026-05-06 01:17 34.97069 -92.64906 7002 ft 204 kts 101°
2026-05-06 01:17 34.96955 -92.63196 6995 ft 202 kts 101°
2026-05-06 01:17 34.96844 -92.61496 6997 ft 201 kts 101°
2026-05-06 01:18 34.96725 -92.59785 6998 ft 204 kts 101°
2026-05-06 01:18 34.96613 -92.58068 6996 ft 201 kts 99°
2026-05-06 01:18 34.96500 -92.56372 6998 ft 202 kts 100°
2026-05-06 01:18 34.96383 -92.54669 6995 ft 202 kts 99°
2026-05-06 01:19 34.96272 -92.52986 6998 ft 202 kts 100°
2026-05-06 01:19 34.96158 -92.51277 7001 ft 203 kts 100°
2026-05-06 01:19 34.96040 -92.49559 7000 ft 204 kts 101°
2026-05-06 01:19 34.95922 -92.47836 7001 ft 204 kts 100°
2026-05-06 01:20 34.95805 -92.46111 7001 ft 205 kts 100°
2026-05-06 01:20 34.95703 -92.44377 7002 ft 206 kts 99°
2026-05-06 01:20 34.95600 -92.42638 7003 ft 206 kts 99°
2026-05-06 01:20 34.95487 -92.40907 7001 ft 205 kts 99°
2026-05-06 01:21 34.95372 -92.39179 7001 ft 205 kts 99°
2026-05-06 01:21 34.95259 -92.37449 7015 ft 205 kts 99°
2026-05-06 01:21 34.95144 -92.35748 7017 ft 203 kts 99°
2026-05-06 01:21 34.95031 -92.34037 7018 ft 202 kts 99°
2026-05-06 01:22 34.94931 -92.32332 7018 ft 202 kts 99°
2026-05-06 01:22 34.94835 -92.30623 7014 ft 203 kts 99°
2026-05-06 01:22 34.94735 -92.28907 7015 ft 203 kts 99°
2026-05-06 01:22 34.94635 -92.27179 6997 ft 205 kts 99°
2026-05-06 01:23 34.94532 -92.25446 6993 ft 204 kts 100°
2026-05-06 01:23 34.94425 -92.23730 7010 ft 203 kts 99°
2026-05-06 01:23 34.94320 -92.21985 6804 ft 209 kts 100°
2026-05-06 01:23 34.94213 -92.20216 6576 ft 209 kts 99°
2026-05-06 01:24 34.94105 -92.18451 6343 ft 208 kts 99°
2026-05-06 01:24 34.94003 -92.16728 6110 ft 205 kts 99°
2026-05-06 01:24 34.93908 -92.15004 5861 ft 202 kts 100°
2026-05-06 01:24 34.93835 -92.13309 5612 ft 198 kts 99°
2026-05-06 01:25 34.93777 -92.11645 5361 ft 195 kts 99°
2026-05-06 01:25 34.93720 -92.10006 5118 ft 193 kts 100°
2026-05-06 01:25 34.93668 -92.08371 4874 ft 192 kts 99°
2026-05-06 01:25 34.93621 -92.06754 4633 ft 190 kts 99°
2026-05-06 01:26 34.93581 -92.05151 4389 ft 188 kts 99°
2026-05-06 01:26 34.93550 -92.03561 4140 ft 187 kts 99°
2026-05-06 01:26 34.93518 -92.01991 4004 ft 181 kts 99°
2026-05-06 01:26 34.93509 -92.00529 4004 ft 164 kts 99°
2026-05-06 01:27 34.93518 -91.99190 3989 ft 157 kts 99°
2026-05-06 01:27 34.93527 -91.97877 3990 ft 154 kts 99°
2026-05-06 01:27 34.93545 -91.96586 3992 ft 151 kts 99°
2026-05-06 01:27 34.93581 -91.95326 3992 ft 147 kts 99°
2026-05-06 01:28 34.93608 -91.94088 3991 ft 145 kts 99°
2026-05-06 01:28 34.93620 -91.92865 3992 ft 144 kts 99°
2026-05-06 01:28 34.93634 -91.91639 3993 ft 144 kts 99°
2026-05-06 01:28 34.93646 -91.90417 3990 ft 145 kts 99°
2026-05-06 01:29 34.93658 -91.89186 3992 ft 146 kts 99°
2026-05-06 01:29 34.93542 -91.88011 3987 ft 132 kts 132°
2026-05-06 01:29 34.92919 -91.87509 3991 ft 96 kts 195°
2026-05-06 01:29 34.92510 -91.87997 3990 ft 93 kts 256°
2026-05-06 01:30 34.92657 -91.88808 3999 ft 99 kts 270°
2026-05-06 01:30 34.92536 -91.89530 4008 ft 87 kts 233°
2026-05-06 01:30 34.92255 -91.90187 4009 ft 88 kts 240°
2026-05-06 01:30 34.91979 -91.90851 4010 ft 88 kts 238°
2026-05-06 01:31 34.91692 -91.91516 4009 ft 89 kts 238°
2026-05-06 01:31 34.91417 -91.92191 4010 ft 89 kts 238°
2026-05-06 01:31 34.91150 -91.92876 4008 ft 90 kts 238°
2026-05-06 01:31 34.90873 -91.93554 4009 ft 91 kts 238°
2026-05-06 01:32 34.90576 -91.94245 4007 ft 93 kts 239°
2026-05-06 01:32 34.90319 -91.94967 4009 ft 93 kts 242°
2026-05-06 01:32 34.90079 -91.95697 4006 ft 93 kts 242°
2026-05-06 01:32 34.89855 -91.96433 4005 ft 93 kts 244°
2026-05-06 01:33 34.89635 -91.97169 4002 ft 92 kts 244°
2026-05-06 01:33 34.89424 -91.97905 3997 ft 92 kts 244°
2026-05-06 01:33 34.89228 -91.98648 3995 ft 92 kts 244°
2026-05-06 01:33 34.89028 -91.99392 3997 ft 93 kts 244°
2026-05-06 01:34 34.88816 -92.00138 4001 ft 94 kts 244°
2026-05-06 01:34 34.88602 -92.00882 4001 ft 95 kts 244°
2026-05-06 01:34 34.88375 -92.01633 4001 ft 94 kts 240°
2026-05-06 01:34 34.88109 -92.02363 4002 ft 94 kts 240°
2026-05-06 01:35 34.87846 -92.03093 4006 ft 94 kts 241°
2026-05-06 01:35 34.87586 -92.03814 4004 ft 92 kts 240°
2026-05-06 01:35 34.87198 -92.04422 3958 ft 93 kts 230°
2026-05-06 01:35 34.86779 -92.05050 3851 ft 98 kts 229°
2026-05-06 01:36 34.86335 -92.05676 3727 ft 95 kts 228°
2026-05-06 01:36 34.85901 -92.06261 3599 ft 92 kts 226°
2026-05-06 01:36 34.85473 -92.06829 3482 ft 91 kts 226°
2026-05-06 01:36 34.85051 -92.07389 3368 ft 89 kts 226°
2026-05-06 01:37 34.84638 -92.07917 3253 ft 86 kts 225°
2026-05-06 01:37 34.84234 -92.08434 3145 ft 83 kts 225°
2026-05-06 01:37 34.83846 -92.08939 3042 ft 81 kts 224°
2026-05-06 01:37 34.83461 -92.09429 2940 ft 80 kts 224°
2026-05-06 01:38 34.83081 -92.09921 2837 ft 80 kts 225°
2026-05-06 01:38 34.82697 -92.10410 2735 ft 80 kts 224°
2026-05-06 01:38 34.82311 -92.10903 2632 ft 80 kts 225°
2026-05-06 01:38 34.81931 -92.11394 2530 ft 79 kts 224°
2026-05-06 01:39 34.81553 -92.11879 2425 ft 79 kts 224°
2026-05-06 01:39 34.81172 -92.12371 2323 ft 81 kts 226°
2026-05-06 01:39 34.80779 -92.12871 2233 ft 83 kts 224°
2026-05-06 01:39 34.80379 -92.13381 2125 ft 84 kts 223°
2026-05-06 01:40 34.79978 -92.13903 2000 ft 87 kts 222°
2026-05-06 01:40 34.79557 -92.14439 1885 ft 88 kts 221°
2026-05-06 01:40 34.79131 -92.14982 1773 ft 89 kts 220°
2026-05-06 01:40 34.78707 -92.15532 1664 ft 89 kts 220°
2026-05-06 01:41 34.78274 -92.16084 1551 ft 88 kts 222°
2026-05-06 01:41 34.77873 -92.16601 1431 ft 80 kts 220°
2026-05-06 01:41 34.77496 -92.17080 1323 ft 78 kts 219°
2026-05-06 01:41 34.77126 -92.17551 1221 ft 76 kts 220°
2026-05-06 01:42 34.76754 -92.18027 1124 ft 80 kts 221°
2026-05-06 01:42 34.76386 -92.18508 1022 ft 84 kts 222°
2026-05-06 01:42 34.75978 -92.19021 922 ft 87 kts 223°
2026-05-06 01:42 34.75551 -92.19575 799 ft 91 kts 221°
2026-05-06 01:43 34.75110 -92.20135 679 ft 94 kts 222°
2026-05-06 01:43 34.74656 -92.20720 558 ft 97 kts 223°
2026-05-06 01:43 34.74183 -92.21321 421 ft 99 kts 223°
2026-05-06 01:43 34.73722 -92.21916 280 ft 95 kts 226°
2026-05-06 01:44 34.73333 -92.22418 262 ft 70 kts 224°
2026-05-06 01:44 34.73059 -92.22769 260 ft 45 kts 227°
2026-05-06 01:44 34.72901 -92.22990 259 ft 24 kts 258°
2026-05-06 01:44 34.72960 -92.23078 261 ft 0 kts 322°
2026-05-06 01:45 34.72961 -92.23079 261 ft 0 kts 321°